KE5BCK Weather Reports


time (UTC)temp
C
wind
direction
speed
KPH
gust
KPH
rain 1hr
cm
rain 24hr
cm
rain mn
cm
humidity
%
barometer
mb
20260506034541 24 184 3.2 12.9 0.00 0.00 0.00 82 1008.1
20260506033039 24 225 3.2 12.9 0.00 0.00 0.00 82 1008.1
20260506031539 24 191 0.0 9.7 0.00 0.00 0.00 81 1008.0
20260506030137 24 164 1.6 11.3 0.00 0.00 0.00 80 1007.8
20260506024537 25 146 1.6 11.3 0.00 0.00 0.00 79 1007.6
20260506023036 25 135 1.6 6.4 0.00 0.00 0.00 78 1007.3
20260506021546 25 155 1.6 8.0 0.00 0.00 0.00 77 1006.9
20260506020134 25 143 1.6 8.0 0.00 0.00 0.00 77 1006.5
20260506014554 25 148 1.6 9.7 0.00 0.00 0.00 77 1006.4
20260506013100 25 145 0.0 8.0 0.00 0.00 0.00 76 1006.4
20260506011620 26 186 1.6 6.4 0.00 0.00 0.00 75 1006.4
20260506010153 26 175 1.6 4.8 0.00 0.00 0.00 74 1006.5
20260506004550 26 156 0.0 3.2 0.00 0.00 0.00 73 1006.6
20260506003050 26 212 1.6 9.7 0.00 0.00 0.00 71 1006.6
20260506001549 27 118 1.6 11.3 0.00 0.00 0.00 71 1006.5
20260506000150 27 166 0.0 3.2 0.00 0.00 0.00 70 1006.6
20260505234548 27 199 3.2 14.5 0.00 0.00 0.00 69 1006.2
20260505233048 27 175 1.6 12.9 0.00 0.00 0.00 68 1006.2
20260505231547 27 211 3.2 11.3 0.00 0.00 0.00 68 1006.1
20260505230146 27 194 3.2 9.7 0.00 0.00 0.00 67 1006.1
20260505224544 28 107 3.2 14.5 0.00 0.00 0.00 66 1006.1
20260505223045 28 146 4.8 14.5 0.00 0.00 0.00 65 1006.0
20260505221551 28 215 6.4 24.1 0.00 0.00 0.00 64 1005.8
20260505220142 28 116 3.2 16.1 0.00 0.00 0.00 65 1005.9
20260505214552 28 136 3.2 12.9 0.00 0.00 0.00 63 1006.3
20260505213045 28 192 3.2 22.5 0.00 0.00 0.00 64 1006.2
20260505211543 28 157 3.2 16.1 0.00 0.00 0.00 64 1006.5
20260505210139 28 181 3.2 19.3 0.00 0.00 0.00 65 1006.6
20260505204554 28 112 4.8 25.7 0.00 0.00 0.00 65 1006.7
20260505203040 28 192 4.8 22.5 0.00 0.00 0.00 68 1007.2
20260505201543 28 225 4.8 22.5 0.00 0.00 0.00 67 1007.4
20260505200137 27 188 6.4 19.3 0.00 0.00 0.00 69 1007.7
20260505194545 27 126 4.8 14.5 0.00 0.00 0.00 69 1007.9
20260505193043 27 172 3.2 14.5 0.00 0.00 0.00 68 1008.0
20260505191539 27 129 3.2 14.5 0.00 0.00 0.00 70 1007.9
20260505190004 26 159 3.2 14.5 0.00 0.00 0.00 72 1008.0
20260505184501 26 189 4.8 11.3 0.00 0.00 0.00 73 1008.1
20260505183101 26 116 3.2 11.3 0.00 0.00 0.00 73 1008.3
20260505181557 25 166 3.2 16.1 0.00 0.00 0.00 74 1008.5
20260505180003 25 290 6.4 14.5 0.00 0.00 0.00 75 1008.6
20260505174559 24 240 3.2 14.5 0.00 0.00 0.00 77 1008.8
20260505173056 23 205 4.8 16.1 0.00 0.00 0.00 77 1009.0
20260505171553 23 185 4.8 14.5 0.00 0.00 0.00 80 1009.1
20260505170148 23 146 3.2 14.5 0.00 0.00 0.00 80 1009.3
20260505164600 22 208 3.2 11.3 0.00 0.00 0.00 82 1009.2
20260505163052 22 212 3.2 11.3 0.00 0.00 0.00 82 1009.2
20260505161555 21 171 1.6 12.9 0.00 0.00 0.00 84 1009.2
20260505160146 21 201 3.2 12.9 0.00 0.00 0.00 84 1009.3
20260505153104 21 192 3.2 12.9 0.00 0.00 0.00 85 1009.2
20260505151546 21 219 3.2 12.9 0.00 0.00 0.00 85 1009.1
20260505150144 21 190 4.8 19.3 0.00 0.00 0.00 85 1008.9
20260505140143 21 207 1.6 14.5 0.00 0.00 0.00 86 1008.7
20260505130138 20 195 3.2 16.1 0.00 0.00 0.00 86 1008.1
20260505124546 20 233 4.8 17.7 0.00 0.00 0.00 86 1007.9
20260505123036 20 194 1.6 24.1 0.00 0.00 0.00 86 1007.8
20260505121536 20 223 3.2 12.9 0.00 0.00 0.00 86 1007.5
20260505120136 20 193 3.2 16.1 0.00 0.00 0.00 85 1007.4
20260505114555 20 198 6.4 16.1 0.00 0.00 0.00 85 1007.2
20260505113112 20 198 1.6 16.1 0.00 0.00 0.00 85 1007.3
20260505111554 20 170 3.2 16.1 0.00 0.00 0.00 85 1007.2
20260505110154 20 225 6.4 17.7 0.00 0.00 0.00 85 1007.6
20260505101551 20 230 4.8 30.6 0.00 0.00 0.00 84 1007.7
20260505100150 20 165 6.4 16.1 0.00 0.00 0.00 84 1007.5
20260505094549 20 108 3.2 16.1 0.00 0.00 0.00 83 1007.5
20260505093051 20 192 3.2 24.1 0.00 0.00 0.00 83 1007.8
20260505091547 20 211 1.6 17.7 0.00 0.00 0.00 83 1007.6
20260505090145 20 220 1.6 17.7 0.00 0.00 0.00 83 1007.9
20260505084552 20 219 3.2 17.7 0.00 0.00 0.00 83 1007.7
20260505083051 20 136 3.2 20.9 0.00 0.00 0.00 84 1007.9
20260505081551 20 138 4.8 22.5 0.00 0.00 0.00 83 1008.2
20260505080145 20 207 4.8 17.7 0.00 0.00 0.00 83 1008.3
20260505074544 20 184 4.8 19.3 0.00 0.00 0.00 82 1008.6
20260505073043 20 159 3.2 19.3 0.00 0.00 0.00 82 1008.6
20260505071541 20 234 6.4 17.7 0.00 0.00 0.00 82 1008.8
20260505070139 20 132 6.4 20.9 0.00 0.00 0.00 82 1009.0
20260505064548 20 171 8.0 32.2 0.00 0.00 0.00 82 1009.1
20260505063041 20 167 4.8 24.1 0.00 0.00 0.00 81 1009.4
20260505061539 21 207 4.8 19.3 0.00 0.00 0.00 81 1009.3
20260505060137 21 178 3.2 19.3 0.00 0.00 0.00 81 1009.4
20260505054532 21 136 8.0 30.6 0.00 0.00 0.00 81 1009.4
20260505053059 21 175 3.2 19.3 0.00 0.00 0.00 80 1009.4
20260505051533 21 205 3.2 17.7 0.00 0.00 0.00 80 1009.4
20260505050132 21 171 4.8 19.3 0.00 0.00 0.00 80 1009.3
20260505041550 21 207 6.4 22.5 0.00 0.00 0.00 79 1009.2
20260505040150 21 180 6.4 19.3 0.00 0.00 0.00 78 1009.4
20260505034611 22 186 4.8 17.7 0.00 0.00 0.00 77 1009.4